Bellingham, WA

8:39 AM PST on November 18, 2017 (GMT -0800)
Bellingham International

Weather History for KBLI - April, 2012

Change the Weather History Date:

Friday, April 6, 2012

  Actual Average Record
Temperature  
Mean Temperature 42 °F 47 °F  
Max Temperature 52 °F 55 °F 74 °F (2007)
Min Temperature 33 °F 39 °F 29 °F (1967)
Degree Days  
Heating Degree Days 24 18  
Month to date heating degree days 108  
Cooling Degree Days 0 0  
Month to date cooling degree days 0  
Year to date cooling degree days 0  
Moisture  
Dew Point 35 °F    
Average Humidity 76    
Maximum Humidity 92    
Minimum Humidity 54    
Precipitation  
Precipitation 0.00 in 0.10 in 0.68 in (1962)
Month to date precipitation 0.60  
Year to date precipitation 11.51  
Sea Level Pressure  
Sea Level Pressure 30.27 in    
Wind  
Wind Speed 3 mph (SSE)    
Max Wind Speed 10 mph    
Max Gust Speed -    
Visibility 10 miles    
Events Rain    
T = Trace of Precipitation, MM = Missing Value Source: NWS Daily Summary

Daily Weather History Graph

Daily Weather History Graph

Search for Another Location

Airport or City:

Trip Planner

Search our weather history database for the weather conditions in past years. The results will help you decide how hot, cold, wet, or windy it might be!

Date:

Astronomy

Apr. 06, 2012 Rise Set
Actual Time 6:36 AM PDT 7:49 PM PDT
Civil Twilight 6:03 AM PDT 8:21 PM PDT
Nautical Twilight 5:24 AM PDT 9:01 PM PDT
Astronomical Twilight 4:43 AM PDT 9:43 PM PDT
Moon 8:22 PM PDT (4/6) 6:09 AM PDT (4/6)
Length of Visible Light 14h 17m
Length of Day
13h 13m
Full, 100% of the Moon is Illuminated
Apr 6
Full
Apr 6
Full
Apr 13
Last Quarter
Apr 21
New
Apr 29
First Quarter

Hourly Weather History & Observations

Time (PDT) Temp. Windchill Dew Point Humidity Pressure Visibility Wind Dir Wind Speed Gust Speed Precip Events Conditions
12:53 AM 37.0 °F - 33.1 °F 86% 30.18 in 10.0 mi Calm Calm - N/A   Clear
1:53 AM 37.9 °F 35.5 °F 35.1 °F 89% 30.18 in 10.0 mi SSE 3.5 mph - N/A   Clear
2:53 AM 35.1 °F - 32.0 °F 89% 30.19 in 10.0 mi Calm Calm - N/A   Clear
3:53 AM 33.1 °F - 30.9 °F 92% 30.20 in 10.0 mi Calm Calm - N/A   Clear
4:53 AM 33.1 °F - 30.9 °F 92% 30.21 in 10.0 mi Calm Calm - N/A   Partly Cloudy
5:53 AM 34.0 °F - 32.0 °F 92% 30.22 in 10.0 mi Calm Calm - N/A   Overcast
6:53 AM 37.9 °F - 35.1 °F 89% 30.23 in 10.0 mi Calm Calm - N/A   Overcast
7:53 AM 41.0 °F 39.0 °F 37.0 °F 86% 30.25 in 10.0 mi SSE 3.5 mph - N/A   Overcast
8:46 AM 44.6 °F 39.7 °F 37.4 °F 76% 30.24 in 10.0 mi SSE 9.2 mph - N/A   Overcast
8:53 AM 44.1 °F 39.5 °F 37.9 °F 79% 30.27 in 10.0 mi South 8.1 mph - N/A   Mostly Cloudy
9:53 AM 45.0 °F 41.2 °F 37.9 °F 76% 30.28 in 10.0 mi Variable 6.9 mph - N/A   Overcast
10:53 AM 46.0 °F 42.5 °F 37.0 °F 71% 30.29 in 10.0 mi SSE 6.9 mph - N/A   Overcast
11:53 AM 48.0 °F - 37.9 °F 68% 30.29 in 10.0 mi South 10.4 mph - N/A   Partly Cloudy
12:53 PM 48.0 °F - 37.0 °F 66% 30.29 in 10.0 mi South 9.2 mph - N/A   Scattered Clouds
1:53 PM 50.0 °F - 37.0 °F 61% 30.29 in 10.0 mi SE 6.9 mph - N/A   Scattered Clouds
2:53 PM 46.9 °F - 35.1 °F 63% 30.30 in 10.0 mi North 9.2 mph - 0.00 in Rain Light Rain
3:53 PM 50.0 °F - 36.0 °F 59% 30.29 in 10.0 mi Calm Calm - 0.00 in   Mostly Cloudy
4:53 PM 48.9 °F - 34.0 °F 56% 30.29 in 10.0 mi South 8.1 mph - N/A   Clear
5:53 PM 50.0 °F - 34.0 °F 54% 30.29 in 10.0 mi SSW 4.6 mph - N/A   Clear
6:53 PM 48.9 °F - 34.0 °F 56% 30.29 in 10.0 mi South 4.6 mph - N/A   Clear
7:53 PM 46.9 °F - 34.0 °F 61% 30.30 in 10.0 mi Calm Calm - N/A   Clear
8:53 PM 41.0 °F - 35.1 °F 79% 30.31 in 10.0 mi Calm Calm - N/A   Clear
9:53 PM 39.0 °F - 35.1 °F 86% 30.32 in 10.0 mi Calm Calm - N/A   Clear
10:53 PM 37.9 °F - 33.1 °F 83% 30.33 in 10.0 mi Calm Calm - N/A   Clear
11:53 PM 37.0 °F - 34.0 °F 89% 30.32 in 10.0 mi Calm Calm - N/A   Clear